| time (UTC) | temp F | wind direction | speed MPH | gust MPH | rain 1hr in | rain 24hr in | rain mn in | humidity % | barometer mb |
| 20260503021528 | 47 | 334 | 2.0 | 6.0 | 0.00 | 0.04 | 0.04 | 54 | 1011.7 |
| 20260503020031 | 48 | 25 | 1.0 | 6.0 | 0.00 | 0.04 | 0.04 | 55 | 1011.7 |
| 20260503014517 | 48 | 53 | 2.0 | 9.0 | 0.00 | 0.04 | 0.04 | 52 | 1011.6 |
| 20260503013028 | 48 | 30 | 2.0 | 8.0 | 0.00 | 0.04 | 0.04 | 52 | 1011.6 |
| 20260503011531 | 49 | 352 | 3.0 | 9.0 | 0.00 | 0.04 | 0.04 | 51 | 1011.7 |
| 20260503010030 | 49 | 5 | 0.0 | 7.0 | 0.00 | 0.04 | 0.04 | 50 | 1011.6 |
| 20260503004530 | 50 | 29 | 4.0 | 9.0 | 0.00 | 0.04 | 0.04 | 49 | 1011.4 |
| 20260503003015 | 50 | 27 | 4.0 | 10.0 | 0.00 | 0.04 | 0.04 | 50 | 1011.3 |
| 20260503001526 | 50 | 46 | 5.0 | 10.0 | 0.00 | 0.04 | 0.04 | 53 | 1011.2 |
| 20260503000025 | 51 | 37 | 5.0 | 13.0 | 0.00 | 0.04 | 0.04 | 56 | 1011.0 |
| 20260502234529 | 51 | 12 | 0.0 | 0.0 | 0.00 | 0.04 | 0.04 | 57 | 1010.8 |
| 20260502233030 | 52 | 13 | 0.0 | 0.0 | 0.00 | 0.04 | 0.04 | 54 | 1010.9 |
| 20260502231517 | 53 | 11 | 0.0 | 6.0 | 0.00 | 0.04 | 0.04 | 53 | 1010.8 |
| 20260502230024 | 53 | 42 | 2.0 | 5.0 | 0.00 | 0.04 | 0.04 | 52 | 1010.8 |
| 20260502224524 | 54 | 22 | 2.0 | 11.0 | 0.00 | 0.04 | 0.04 | 50 | 1010.8 |
| 20260502223035 | 55 | 32 | 1.0 | 12.0 | 0.00 | 0.04 | 0.04 | 52 | 1010.6 |
| 20260502221528 | 54 | 9 | 4.0 | 12.0 | 0.00 | 0.04 | 0.04 | 54 | 1010.6 |
| 20260502220018 | 54 | 45 | 5.0 | 12.0 | 0.00 | 0.04 | 0.04 | 54 | 1010.4 |
| 20260502214521 | 56 | 360 | 3.0 | 14.0 | 0.00 | 0.04 | 0.04 | 53 | 1010.4 |
| 20260502213007 | 56 | 313 | 0.0 | 3.0 | 0.00 | 0.04 | 0.04 | 51 | 1010.2 |
| 20260502211526 | 57 | 346 | 0.0 | 0.0 | 0.00 | 0.04 | 0.04 | 49 | 1010.0 |
| 20260502210016 | 59 | 352 | 2.0 | 9.0 | 0.00 | 0.04 | 0.04 | 45 | 1010.0 |
| 20260502204521 | 57 | 51 | 0.0 | 7.0 | 0.00 | 0.04 | 0.04 | 47 | 1010.2 |
| 20260502203024 | 57 | 331 | 1.0 | 9.0 | 0.00 | 0.04 | 0.04 | 52 | 1010.3 |
| 20260502201508 | 57 | 360 | 0.0 | 10.0 | 0.00 | 0.04 | 0.04 | 49 | 1010.6 |
| 20260502200015 | 57 | 13 | 1.0 | 11.0 | 0.00 | 0.04 | 0.04 | 51 | 1010.8 |
| 20260502194517 | 57 | 31 | 0.0 | 13.0 | 0.00 | 0.04 | 0.04 | 54 | 1010.9 |
| 20260502193024 | 56 | 317 | 1.0 | 8.0 | 0.00 | 0.04 | 0.04 | 54 | 1011.2 |
| 20260502191525 | 55 | 30 | 3.0 | 10.0 | 0.00 | 0.04 | 0.04 | 59 | 1011.2 |
| 20260502190008 | 54 | 14 | 7.0 | 13.0 | 0.00 | 0.04 | 0.04 | 60 | 1011.5 |
| 20260502184522 | 55 | 51 | 3.0 | 12.0 | 0.00 | 0.04 | 0.04 | 60 | 1011.6 |
| 20260502183045 | 54 | 11 | 7.0 | 13.0 | 0.00 | 0.04 | 0.04 | 63 | 1011.8 |
| 20260502181534 | 52 | 346 | 1.0 | 12.0 | 0.00 | 0.04 | 0.04 | 67 | 1011.7 |
| 20260502163018 | 49 | 32 | 4.0 | 14.0 | 0.00 | 0.04 | 0.04 | 81 | 1011.8 |
| 20260502161519 | 51 | 313 | 0.0 | 15.0 | 0.00 | 0.04 | 0.04 | 77 | 1011.9 |
| 20260502151515 | 54 | 288 | 0.0 | 0.0 | 0.00 | 0.04 | 0.04 | 74 | 1011.8 |
| 20260502123023 | 48 | 190 | 0.0 | 0.0 | 0.00 | 0.04 | 0.04 | 89 | 1012.1 |
| 20260502121510 | 47 | 190 | 0.0 | 0.0 | 0.00 | 0.04 | 0.04 | 90 | 1012.0 |
| 20260502114512 | 47 | 188 | 0.0 | 0.0 | 0.02 | 0.04 | 0.04 | 90 | 1012.3 |
| 20260502113017 | 46 | 188 | 0.0 | 0.0 | 0.03 | 0.04 | 0.04 | 90 | 1012.4 |
| 20260502111522 | 46 | 324 | 0.0 | 0.0 | 0.04 | 0.04 | 0.04 | 89 | 1012.3 |
| 20260502110009 | 46 | 324 | 0.0 | 0.0 | 0.04 | 0.04 | 0.04 | 89 | 1012.0 |
| 20260502104521 | 46 | 324 | 0.0 | 0.0 | 0.02 | 0.02 | 0.02 | 89 | 1012.1 |
| 20260502103018 | 47 | 229 | 0.0 | 0.0 | 0.01 | 0.01 | 0.01 | 89 | 1012.3 |
| 20260502101542 | 47 | 224 | 0.0 | 0.0 | 0.00 | 0.00 | 0.00 | 88 | 1012.7 |
| 20260502091516 | 47 | 223 | 0.0 | 0.0 | 0.00 | 0.00 | 0.00 | 87 | 1011.7 |
| 20260502071529 | 48 | 233 | 0.0 | 0.0 | 0.00 | 0.00 | 0.00 | 82 | 1011.8 |
| 20260502070017 | 48 | 233 | 0.0 | 0.0 | 0.00 | 0.00 | 0.00 | 82 | 1011.8 |
| 20260502064520 | 48 | 233 | 0.0 | 0.0 | 0.00 | 0.00 | 0.00 | 81 | 1011.9 |
| 20260502063032 | 48 | 233 | 0.0 | 0.0 | 0.00 | 0.00 | 0.00 | 80 | 1011.7 |
| 20260502061509 | 48 | 233 | 0.0 | 0.0 | 0.00 | 0.00 | 0.00 | 78 | 1012.0 |
| 20260502060013 | 49 | 233 | 0.0 | 0.0 | 0.00 | 0.00 | 0.00 | 78 | 1011.9 |
| 20260502054518 | 49 | 233 | 0.0 | 0.0 | 0.00 | 0.00 | 0.00 | 77 | 1012.0 |
| 20260502053019 | 49 | 233 | 0.0 | 0.0 | 0.00 | 0.00 | 0.00 | 76 | 1011.9 |
| 20260502051526 | 49 | 233 | 0.0 | 0.0 | 0.00 | 0.00 | 0.00 | 75 | 1012.0 |
| 20260502050009 | 50 | 233 | 0.0 | 0.0 | 0.00 | 0.00 | 0.00 | 74 | 1012.1 |
| 20260502044513 | 50 | 233 | 0.0 | 0.0 | 0.00 | 0.00 | 0.00 | 73 | 1011.9 |
| 20260502043020 | 50 | 233 | 0.0 | 0.0 | 0.00 | 0.00 | 0.00 | 72 | 1012.0 |
| 20260502041524 | 51 | 233 | 0.0 | 0.0 | 0.00 | 0.00 | 0.00 | 72 | 1012.1 |
| 20260502040028 | 51 | 233 | 0.0 | 0.0 | 0.00 | 0.00 | 0.00 | 72 | 1012.1 |
| 20260502034521 | 51 | 233 | 0.0 | 0.0 | 0.00 | 0.00 | 0.00 | 71 | 1012.2 |
| 20260502033015 | 51 | 233 | 0.0 | 0.0 | 0.00 | 0.00 | 0.00 | 69 | 1012.0 |
| 20260502031523 | 52 | 233 | 0.0 | 0.0 | 0.00 | 0.00 | 0.00 | 69 | 1012.3 |
| 20260502030026 | 52 | 233 | 0.0 | 0.0 | 0.00 | 0.00 | 0.00 | 68 | 1012.4 |
| 20260502024533 | 52 | 233 | 0.0 | 0.0 | 0.00 | 0.00 | 0.00 | 67 | 1012.2 |
| 20260502023030 | 52 | 233 | 0.0 | 0.0 | 0.00 | 0.00 | 0.00 | 66 | 1012.2 |